Time,TemperatureF,DewpointF,PressureIn,WindDirection,WindDirectionDegrees,WindSpeedMPH,WindSpeedGustMPH,Humidity,HourlyPrecipIn,Conditions,Clouds,dailyrainin,SoftwareType,DateUTC
2013-08-01 00:00:00,72.1,65.9,29.96,NNE,15,0.0,0.0,81,0.00,,,0.00,Wunderground v.1.15,2013-08-01 05:00:00,
2013-08-01 00:05:00,72.1,65.9,29.95,NNE,17,0.0,0.0,81,0.00,,,0.00,Wunderground v.1.15,2013-08-01 05:05:00,
2013-08-01 00:10:00,72.0,65.8,29.95,NNE,17,0.0,0.0,81,0.00,,,0.00,Wunderground v.1.15,2013-08-01 05:10:00,
2013-08-01 00:15:00,71.8,65.7,29.95,NNE,17,0.0,0.0,81,0.00,,,0.00,Wunderground v.1.15,2013-08-01 05:15:00,
2013-08-01 00:20:00,71.8,66.0,29.96,NNE,17,0.0,0.0,82,0.00,,,0.00,Wunderground v.1.15,2013-08-01 05:20:00,
2013-08-01 00:30:00,71.3,65.5,29.96,NNE,21,0.0,0.0,82,0.00,,,0.00,Wunderground v.1.15,2013-08-01 05:30:00,
2013-08-01 00:40:00,71.1,65.7,29.95,NNE,21,0.0,0.0,83,0.00,,,0.00,Wunderground v.1.15,2013-08-01 05:40:00,
2013-08-01 00:50:00,70.6,65.5,29.95,NNE,21,0.0,0.0,84,0.00,,,0.00,Wunderground v.1.15,2013-08-01 05:50:00,
2013-08-01 01:00:00,69.9,64.8,29.95,NNE,21,0.0,0.0,84,0.00,,,0.00,Wunderground v.1.15,2013-08-01 06:00:00,
2013-08-01 01:05:00,69.9,65.2,29.95,NNE,21,0.0,0.0,85,0.00,,,0.00,Wunderground v.1.15,2013-08-01 06:05:00,
2013-08-01 01:14:00,69.8,65.4,29.95,NNE,21,0.0,2.0,86,0.00,,,0.00,Wunderground v.1.15,2013-08-01 06:14:00,
2013-08-01 01:20:00,69.8,65.4,29.95,NNE,21,0.0,0.0,86,0.00,,,0.00,Wunderground v.1.15,2013-08-01 06:20:00,
2013-08-01 01:25:00,69.6,65.2,29.95,NNE,21,0.0,0.0,86,0.00,,,0.00,Wunderground v.1.15,2013-08-01 06:25:00,
2013-08-01 01:35:00,69.1,64.7,29.95,NNE,21,0.0,0.0,86,0.00,,,0.00,Wunderground v.1.15,2013-08-01 06:35:00,
2013-08-01 01:40:00,68.6,64.2,29.95,NNE,21,0.0,0.0,86,0.00,,,0.00,Wunderground v.1.15,2013-08-01 06:40:00,
2013-08-01 01:50:00,67.9,63.9,29.95,NNE,21,0.0,0.0,87,0.00,,,0.00,Wunderground v.1.15,2013-08-01 06:50:00,
2013-08-01 02:00:00,67.3,63.6,29.95,NNE,21,0.0,0.0,88,0.00,,,0.00,Wunderground v.1.15,2013-08-01 07:00:00,
2013-08-01 02:05:00,67.1,63.4,29.95,NNE,21,0.0,0.0,88,0.00,,,0.00,Wunderground v.1.15,2013-08-01 07:05:00,
2013-08-01 02:14:00,66.8,63.5,29.95,NNE,21,0.0,0.0,89,0.00,,,0.00,Wunderground v.1.15,2013-08-01 07:14:00,
2013-08-01 02:20:00,66.4,63.1,29.95,NNE,21,0.0,0.0,89,0.00,,,0.00,Wunderground v.1.15,2013-08-01 07:20:00,
2013-08-01 02:30:00,66.4,63.4,29.95,NNE,21,0.0,0.0,90,0.00,,,0.00,Wunderground v.1.15,2013-08-01 07:30:00,
2013-08-01 02:40:00,66.3,63.3,29.95,NNE,21,0.0,0.0,90,0.00,,,0.00,Wunderground v.1.15,2013-08-01 07:40:00,
2013-08-01 02:50:00,66.1,63.4,29.95,NNE,21,0.0,0.0,91,0.00,,,0.00,Wunderground v.1.15,2013-08-01 07:50:00,
2013-08-01 03:00:00,65.6,62.9,29.95,NNE,21,0.0,0.0,91,0.00,,,0.00,Wunderground v.1.15,2013-08-01 08:00:00,
2013-08-01 03:10:00,65.3,62.6,29.95,NNE,21,0.0,0.0,91,0.00,,,0.00,Wunderground v.1.15,2013-08-01 08:10:00,
2013-08-01 03:20:00,64.8,62.1,29.96,NNE,21,0.0,0.0,91,0.00,,,0.00,Wunderground v.1.15,2013-08-01 08:20:00,
2013-08-01 03:30:00,64.5,62.1,29.96,NNE,21,0.0,0.0,92,0.00,,,0.00,Wunderground v.1.15,2013-08-01 08:30:00,
2013-08-01 03:40:00,64.3,61.9,29.97,NNE,21,0.0,0.0,92,0.00,,,0.00,Wunderground v.1.15,2013-08-01 08:40:00,
2013-08-01 03:45:00,64.2,61.8,29.97,NNE,21,0.0,0.0,92,0.00,,,0.00,Wunderground v.1.15,2013-08-01 08:45:00,
2013-08-01 04:00:00,63.9,61.5,29.97,NNE,21,0.0,0.0,92,0.00,,,0.00,Wunderground v.1.15,2013-08-01 09:00:00,
2013-08-01 04:05:00,63.9,61.5,29.97,NNE,21,0.0,0.0,92,0.00,,,0.00,Wunderground v.1.15,2013-08-01 09:05:00,
2013-08-01 04:15:00,63.9,61.5,29.97,NNE,21,0.0,0.0,92,0.00,,,0.00,Wunderground v.1.15,2013-08-01 09:15:00,
2013-08-01 04:30:00,63.4,61.3,29.96,NNE,21,0.0,0.0,93,0.00,,,0.00,Wunderground v.1.15,2013-08-01 09:30:00,
2013-08-01 04:35:00,63.2,61.1,29.96,NNE,21,0.0,0.0,93,0.00,,,0.00,Wunderground v.1.15,2013-08-01 09:35:00,
2013-08-01 04:45:00,63.1,61.0,29.96,NNE,21,0.0,0.0,93,0.00,,,0.00,Wunderground v.1.15,2013-08-01 09:45:00,
2013-08-01 04:55:00,62.7,60.6,29.97,NNE,21,0.0,0.0,93,0.00,,,0.00,Wunderground v.1.15,2013-08-01 09:55:00,
2013-08-01 05:05:00,62.6,60.5,29.97,NNE,21,0.0,0.0,93,0.00,,,0.00,Wunderground v.1.15,2013-08-01 10:05:00,
2013-08-01 05:15:00,62.6,60.5,29.97,NNE,21,0.0,0.0,93,0.00,,,0.00,Wunderground v.1.15,2013-08-01 10:15:00,
2013-08-01 05:25:00,62.7,60.6,29.97,NNE,21,0.0,0.0,93,0.00,,,0.00,Wunderground v.1.15,2013-08-01 10:25:00,
2013-08-01 05:35:00,62.4,60.3,29.98,NNE,21,0.0,0.0,93,0.00,,,0.00,Wunderground v.1.15,2013-08-01 10:35:00,
2013-08-01 05:55:00,62.3,60.2,29.98,NNE,21,0.0,0.0,93,0.00,,,0.00,Wunderground v.1.15,2013-08-01 10:55:00,
2013-08-01 06:09:00,61.8,59.8,29.99,NNE,21,0.0,0.0,93,0.00,,,0.00,Wunderground v.1.15,2013-08-01 11:09:00,
2013-08-01 06:15:00,61.8,59.8,29.99,NNE,21,0.0,0.0,93,0.00,,,0.00,Wunderground v.1.15,2013-08-01 11:15:00,
2013-08-01 06:30:00,61.5,59.5,29.99,NNE,21,0.0,0.0,93,0.00,,,0.00,Wunderground v.1.15,2013-08-01 11:30:00,
2013-08-01 06:40:00,62.0,60.3,29.99,NNE,21,0.0,0.0,94,0.00,,,0.00,Wunderground v.1.15,2013-08-01 11:40:00,
2013-08-01 06:50:00,62.1,60.4,29.99,NNE,21,0.0,0.0,94,0.00,,,0.00,Wunderground v.1.15,2013-08-01 11:50:00,
2013-08-01 07:05:00,62.4,60.7,30.00,NNE,21,0.0,0.0,94,0.00,,,0.00,Wunderground v.1.15,2013-08-01 12:05:00,
2013-08-01 07:14:00,62.7,60.9,30.00,NNE,21,0.0,0.0,94,0.00,,,0.00,Wunderground v.1.15,2013-08-01 12:14:00,
2013-08-01 07:20:00,62.9,61.1,30.00,NNE,21,0.0,0.0,94,0.00,,,0.00,Wunderground v.1.15,2013-08-01 12:20:00,
2013-08-01 07:29:00,63.7,61.9,30.00,NNE,21,0.0,0.0,94,0.00,,,0.00,Wunderground v.1.15,2013-08-01 12:29:00,
2013-08-01 07:35:00,64.0,62.2,30.00,NNE,21,0.0,0.0,94,0.00,,,0.00,Wunderground v.1.15,2013-08-01 12:35:00,
2013-08-01 08:05:00,67.1,65.3,30.00,NNE,21,0.0,0.0,94,0.00,,,0.00,Wunderground v.1.15,2013-08-01 13:05:00,
2013-08-01 08:19:00,68.8,67.0,30.00,NNE,21,0.0,0.0,94,0.00,,,0.00,Wunderground v.1.15,2013-08-01 13:19:00,
2013-08-01 08:25:00,69.6,67.5,30.00,NNE,21,0.0,2.0,93,0.00,,,0.00,Wunderground v.1.15,2013-08-01 13:25:00,
2013-08-01 08:49:00,73.2,66.7,30.00,ESE,109,1.0,1.0,80,0.00,,,0.00,Wunderground v.1.15,2013-08-01 13:49:00,
2013-08-01 08:55:00,73.9,65.5,30.00,ESE,111,0.0,1.0,75,0.00,,,0.00,Wunderground v.1.15,2013-08-01 13:55:00,
2013-08-01 09:05:00,74.9,65.3,30.00,North,11,1.0,1.0,72,0.00,,,0.00,Wunderground v.1.15,2013-08-01 14:05:00,
2013-08-01 09:15:00,75.6,65.1,30.00,NNE,15,1.0,1.0,70,0.00,,,0.00,Wunderground v.1.15,2013-08-01 14:15:00,
2013-08-01 09:25:00,76.1,64.3,30.00,ESE,121,1.0,3.0,67,0.00,,,0.00,Wunderground v.1.15,2013-08-01 14:25:00,
2013-08-01 09:35:00,76.3,65.0,30.00,East,98,1.0,1.0,68,0.00,,,0.00,Wunderground v.1.15,2013-08-01 14:35:00,
2013-08-01 09:55:00,76.8,64.1,30.00,ESE,119,1.0,2.0,65,0.00,,,0.00,Wunderground v.1.15,2013-08-01 14:55:00,
2013-08-01 10:05:00,77.4,64.7,30.00,NE,53,1.0,2.0,65,0.00,,,0.00,Wunderground v.1.15,2013-08-01 15:05:00,
2013-08-01 10:20:00,78.5,65.3,30.00,East,88,1.0,1.0,64,0.00,,,0.00,Wunderground v.1.15,2013-08-01 15:20:00,
2013-08-01 10:34:00,78.8,65.1,30.00,ESE,118,1.0,1.0,63,0.00,,,0.00,Wunderground v.1.15,2013-08-01 15:34:00,
2013-08-01 10:50:00,79.4,64.3,30.00,NE,34,1.0,5.0,60,0.00,,,0.00,Wunderground v.1.15,2013-08-01 15:50:00,
2013-08-01 11:00:00,79.2,63.6,30.00,ENE,57,2.0,2.0,59,0.00,,,0.00,Wunderground v.1.15,2013-08-01 16:00:00,
2013-08-01 11:05:00,79.4,64.8,30.00,ESE,122,1.0,2.0,61,0.00,,,0.00,Wunderground v.1.15,2013-08-01 16:05:00,
2013-08-01 11:10:00,80.1,66.4,30.00,SE,138,1.0,1.0,63,0.00,,,0.00,Wunderground v.1.15,2013-08-01 16:10:00,
2013-08-01 11:25:00,80.7,63.0,29.99,SSE,161,2.0,2.0,55,0.00,,,0.00,Wunderground v.1.15,2013-08-01 16:25:00,
2013-08-01 11:30:00,80.7,64.5,29.99,South,189,1.0,3.0,58,0.00,,,0.00,Wunderground v.1.15,2013-08-01 16:30:00,
2013-08-01 11:40:00,81.2,64.0,29.99,ESE,116,1.0,2.0,56,0.00,,,0.00,Wunderground v.1.15,2013-08-01 16:40:00,
2013-08-01 11:55:00,81.6,63.9,29.99,SE,130,1.0,1.0,55,0.00,,,0.00,Wunderground v.1.15,2013-08-01 16:55:00,
2013-08-01 12:15:00,82.4,64.6,29.98,SSE,164,1.0,1.0,55,0.00,,,0.00,Wunderground v.1.15,2013-08-01 17:15:00,
2013-08-01 12:29:00,82.8,63.9,29.98,ESE,109,1.0,1.0,53,0.00,,,0.00,Wunderground v.1.15,2013-08-01 17:29:00,
2013-08-01 12:45:00,82.8,66.5,29.98,NNE,13,1.0,1.0,58,0.00,,,0.00,Wunderground v.1.15,2013-08-01 17:45:00,
2013-08-01 12:55:00,83.0,64.6,29.97,East,96,1.0,1.0,54,0.00,,,0.00,Wunderground v.1.15,2013-08-01 17:55:00,
2013-08-01 13:09:00,83.4,63.4,29.97,South,182,1.0,1.0,51,0.00,,,0.00,Wunderground v.1.15,2013-08-01 18:09:00,
2013-08-01 13:15:00,83.6,66.2,29.97,South,178,1.0,1.0,56,0.00,,,0.00,Wunderground v.1.15,2013-08-01 18:15:00,
2013-08-01 13:29:00,83.8,63.2,29.97,East,100,0.0,0.0,50,0.00,,,0.00,Wunderground v.1.15,2013-08-01 18:29:00,
2013-08-01 13:39:00,84.5,64.9,29.97,NNE,32,0.0,0.0,52,0.00,,,0.00,Wunderground v.1.15,2013-08-01 18:39:00,
2013-08-01 13:45:00,84.3,61.9,29.97,NNE,32,1.0,1.0,47,0.00,,,0.00,Wunderground v.1.15,2013-08-01 18:45:00,
2013-08-01 14:00:00,84.7,63.4,29.97,ESE,115,1.0,1.0,49,0.00,,,0.00,Wunderground v.1.15,2013-08-01 19:00:00,
2013-08-01 14:05:00,84.9,66.9,29.95,NE,36,1.0,1.0,55,0.00,,,0.00,Wunderground v.1.15,2013-08-01 19:05:00,
2013-08-01 14:14:00,85.1,63.8,29.95,SSE,153,1.0,1.0,49,0.00,,,0.00,Wunderground v.1.15,2013-08-01 19:14:00,
2013-08-01 14:25:00,85.1,62.0,29.95,NNE,21,1.0,1.0,46,0.00,,,0.00,Wunderground v.1.15,2013-08-01 19:25:00,
2013-08-01 14:30:00,85.1,63.8,29.95,South,170,1.0,1.0,49,0.00,,,0.00,Wunderground v.1.15,2013-08-01 19:30:00,
2013-08-01 14:40:00,85.5,63.0,29.95,SE,134,0.0,5.0,47,0.00,,,0.00,Wunderground v.1.15,2013-08-01 19:40:00,
2013-08-01 14:50:00,85.3,64.0,29.95,NE,34,1.0,1.0,49,0.00,,,0.00,Wunderground v.1.15,2013-08-01 19:50:00,
2013-08-01 15:05:00,85.5,62.4,29.95,NNE,28,1.0,2.0,46,0.00,,,0.00,Wunderground v.1.15,2013-08-01 20:05:00,
2013-08-01 15:10:00,85.5,61.7,29.95,NE,50,1.0,1.0,45,0.00,,,0.00,Wunderground v.1.15,2013-08-01 20:10:00,
2013-08-01 15:19:00,85.5,63.6,29.95,NNE,27,1.0,1.0,48,0.00,,,0.00,Wunderground v.1.15,2013-08-01 20:19:00,
2013-08-01 15:29:00,85.5,63.6,29.95,NNE,25,0.0,0.0,48,0.00,,,0.00,Wunderground v.1.15,2013-08-01 20:29:00,
2013-08-01 15:39:00,85.7,61.9,29.95,SSE,165,1.0,4.0,45,0.00,,,0.00,Wunderground v.1.15,2013-08-01 20:39:00,
2013-08-01 15:45:00,85.7,63.8,29.95,South,179,2.0,4.0,48,0.00,,,0.00,Wunderground v.1.15,2013-08-01 20:45:00,
2013-08-01 15:59:00,86.3,65.5,29.94,NE,42,0.0,0.0,50,0.00,,,0.00,Wunderground v.1.15,2013-08-01 20:59:00,
2013-08-01 16:10:00,86.5,62.6,29.94,ESE,103,0.0,0.0,45,0.00,,,0.00,Wunderground v.1.15,2013-08-01 21:10:00,
2013-08-01 16:15:00,86.5,64.5,29.94,ESE,102,0.0,0.0,48,0.00,,,0.00,Wunderground v.1.15,2013-08-01 21:15:00,
2013-08-01 16:25:00,86.3,63.1,29.94,ENE,69,1.0,1.0,46,0.00,,,0.00,Wunderground v.1.15,2013-08-01 21:25:00,
2013-08-01 16:35:00,86.1,62.9,29.93,NE,34,0.0,1.0,46,0.00,,,0.00,Wunderground v.1.15,2013-08-01 21:35:00,
2013-08-01 16:45:00,86.5,61.3,29.93,SE,142,1.0,3.0,43,0.00,,,0.00,Wunderground v.1.15,2013-08-01 21:45:00,
2013-08-01 16:55:00,86.1,63.5,29.92,NE,40,0.0,1.0,47,0.00,,,0.00,Wunderground v.1.15,2013-08-01 21:55:00,
2013-08-01 17:05:00,85.9,61.5,29.92,NE,46,1.0,4.0,44,0.00,,,0.00,Wunderground v.1.15,2013-08-01 22:05:00,
2013-08-01 17:15:00,85.9,63.9,29.92,SSE,168,0.0,1.0,48,0.00,,,0.00,Wunderground v.1.15,2013-08-01 22:15:00,
2013-08-01 17:25:00,85.9,62.1,29.92,ENE,65,0.0,1.0,45,0.00,,,0.00,Wunderground v.1.15,2013-08-01 22:25:00,
2013-08-01 17:34:00,86.1,61.0,29.91,NE,50,0.0,0.0,43,0.00,,,0.00,Wunderground v.1.15,2013-08-01 22:34:00,
2013-08-01 17:40:00,86.3,61.8,29.91,ENE,57,0.0,0.0,44,0.00,,,0.00,Wunderground v.1.15,2013-08-01 22:40:00,
2013-08-01 17:54:00,86.1,63.5,29.91,ENE,61,0.0,1.0,47,0.00,,,0.00,Wunderground v.1.15,2013-08-01 22:54:00,
2013-08-01 18:00:00,85.7,62.5,29.91,ENE,62,0.0,0.0,46,0.00,,,0.00,Wunderground v.1.15,2013-08-01 23:00:00,
2013-08-01 18:05:00,85.3,62.2,29.90,ENE,75,0.0,1.0,46,0.00,,,0.00,Wunderground v.1.15,2013-08-01 23:05:00,
2013-08-01 18:10:00,85.3,63.4,29.90,ESE,107,0.0,0.0,48,0.00,,,0.00,Wunderground v.1.15,2013-08-01 23:10:00,
2013-08-01 18:20:00,85.5,64.2,29.90,ENE,58,0.0,0.0,49,0.00,,,0.00,Wunderground v.1.15,2013-08-01 23:20:00,
2013-08-01 18:35:00,84.9,62.4,29.90,ENE,58,0.0,0.0,47,0.00,,,0.00,Wunderground v.1.15,2013-08-01 23:35:00,
2013-08-01 18:40:00,84.7,64.0,29.90,NE,53,0.0,0.0,50,0.00,,,0.00,Wunderground v.1.15,2013-08-01 23:40:00,
2013-08-01 18:50:00,84.0,64.5,29.90,ENE,57,0.0,0.0,52,0.00,,,0.00,Wunderground v.1.15,2013-08-01 23:50:00,
2013-08-01 19:00:00,83.6,63.6,29.90,ESE,109,0.0,0.0,51,0.00,,,0.00,Wunderground v.1.15,2013-08-02 00:00:00,
2013-08-01 19:10:00,83.4,64.5,29.89,ESE,109,0.0,0.0,53,0.00,,,0.00,Wunderground v.1.15,2013-08-02 00:10:00,
2013-08-01 19:20:00,82.8,63.9,29.88,ESE,111,0.0,0.0,53,0.00,,,0.00,Wunderground v.1.15,2013-08-02 00:20:00,
2013-08-01 19:30:00,82.2,66.0,29.88,ESE,111,0.0,0.0,58,0.00,,,0.00,Wunderground v.1.15,2013-08-02 00:30:00,
2013-08-01 19:40:00,81.4,66.2,29.89,ESE,111,0.0,0.0,60,0.00,,,0.00,Wunderground v.1.15,2013-08-02 00:40:00,
2013-08-01 19:50:00,80.7,66.0,29.89,ESE,111,0.0,0.0,61,0.00,,,0.00,Wunderground v.1.15,2013-08-02 00:50:00,
2013-08-01 20:10:00,79.0,68.0,29.89,ESE,111,0.0,0.0,69,0.00,,,0.00,Wunderground v.1.15,2013-08-02 01:10:00,
2013-08-01 20:20:00,77.7,68.0,29.88,ESE,111,0.0,0.0,72,0.00,,,0.00,Wunderground v.1.15,2013-08-02 01:20:00,
2013-08-01 20:25:00,77.0,67.3,29.88,ESE,111,0.0,0.0,72,0.00,,,0.00,Wunderground v.1.15,2013-08-02 01:25:00,
2013-08-01 20:34:00,76.0,66.3,29.89,ESE,111,0.0,0.0,72,0.00,,,0.00,Wunderground v.1.15,2013-08-02 01:34:00,
2013-08-01 20:40:00,75.6,65.5,29.89,ESE,111,0.0,0.0,71,0.00,,,0.00,Wunderground v.1.15,2013-08-02 01:40:00,
2013-08-01 20:50:00,75.6,65.9,29.89,ESE,111,0.0,0.0,72,0.00,,,0.00,Wunderground v.1.15,2013-08-02 01:50:00,
2013-08-01 21:00:00,75.3,66.4,29.89,ESE,111,0.0,0.0,74,0.00,,,0.00,Wunderground v.1.15,2013-08-02 02:00:00,
2013-08-01 21:05:00,74.9,66.4,29.89,ESE,111,0.0,0.0,75,0.00,,,0.00,Wunderground v.1.15,2013-08-02 02:05:00,
2013-08-01 21:25:00,73.3,66.4,29.89,ESE,111,0.0,0.0,79,0.00,,,0.00,Wunderground v.1.15,2013-08-02 02:25:00,
2013-08-01 21:30:00,72.8,66.3,29.89,ESE,111,0.0,0.0,80,0.00,,,0.00,Wunderground v.1.15,2013-08-02 02:30:00,
2013-08-01 21:45:00,71.8,66.0,29.89,ESE,111,0.0,0.0,82,0.00,,,0.00,Wunderground v.1.15,2013-08-02 02:45:00,
2013-08-01 21:55:00,71.6,65.8,29.89,ESE,111,0.0,0.0,82,0.00,,,0.00,Wunderground v.1.15,2013-08-02 02:55:00,
2013-08-01 22:05:00,71.3,65.9,29.89,ESE,111,0.0,0.0,83,0.00,,,0.00,Wunderground v.1.15,2013-08-02 03:05:00,
2013-08-01 22:10:00,71.5,65.4,29.89,ESE,111,0.0,0.0,81,0.00,,,0.00,Wunderground v.1.15,2013-08-02 03:10:00,
2013-08-01 22:24:00,72.1,64.9,29.89,ESE,111,0.0,0.0,78,0.00,,,0.00,Wunderground v.1.15,2013-08-02 03:24:00,
2013-08-01 22:30:00,72.5,65.2,29.89,ESE,111,0.0,0.0,78,0.00,,,0.00,Wunderground v.1.15,2013-08-02 03:30:00,
2013-08-01 22:40:00,72.3,65.1,29.88,ESE,111,0.0,0.0,78,0.00,,,0.00,Wunderground v.1.15,2013-08-02 03:40:00,
2013-08-01 22:50:00,72.3,64.7,29.88,ESE,111,0.0,0.0,77,0.00,,,0.00,Wunderground v.1.15,2013-08-02 03:50:00,
2013-08-01 23:00:00,72.5,64.9,29.88,ESE,111,0.0,0.0,77,0.00,,,0.00,Wunderground v.1.15,2013-08-02 04:00:00,
2013-08-01 23:05:00,72.3,64.7,29.88,ESE,111,0.0,0.0,77,0.00,,,0.00,Wunderground v.1.15,2013-08-02 04:05:00,
2013-08-01 23:09:00,72.1,64.9,29.88,ESE,111,0.0,0.0,78,0.00,,,0.00,Wunderground v.1.15,2013-08-02 04:09:00,
2013-08-01 23:15:00,72.0,65.1,29.88,ESE,111,0.0,0.0,79,0.00,,,0.00,Wunderground v.1.15,2013-08-02 04:15:00,
2013-08-01 23:19:00,71.6,65.1,29.88,ESE,111,0.0,0.0,80,0.00,,,0.00,Wunderground v.1.15,2013-08-02 04:19:00,
2013-08-01 23:25:00,71.3,64.8,29.88,ESE,111,0.0,0.0,80,0.00,,,0.00,Wunderground v.1.15,2013-08-02 04:25:00,
2013-08-01 23:34:00,71.1,64.6,29.89,ESE,111,0.0,0.0,80,0.00,,,0.00,Wunderground v.1.15,2013-08-02 04:34:00,
2013-08-01 23:40:00,71.1,64.6,29.89,ESE,111,0.0,0.0,80,0.00,,,0.00,Wunderground v.1.15,2013-08-02 04:40:00,
2013-08-01 23:50:00,70.6,64.8,29.89,ESE,111,0.0,0.0,82,0.00,,,0.00,Wunderground v.1.15,2013-08-02 04:50:00,
2013-08-01 23:55:00,70.1,64.7,29.89,ESE,111,0.0,0.0,83,0.00,,,0.00,Wunderground v.1.15,2013-08-02 04:55:00,